Weather Roundup
Issued by NWS Chicago, IL

Home | Current Version | Previous Version | Graphics & Text | Print | Product List | Glossary On
Versions: 1 2 3 4 5 6 7 8 9 10 11 12 13 14 15 16 17 18 19 20 21 22 23 24 25 26 27 28 29 30 31 32 33 34 35 36 37 38 39 40 41 42 43 44 45 46 47 48 49 50
000
NZUS59 KLOT 242008
HRRLOT

CHICAGO AREA WEATHER ROUNDUP
NATIONAL WEATHER SERVICE CHICAGO/ROMEOVILLE IL
300 PM CDT SAT SEP 24 2016

NOTE: "FAIR" INDICATES FEW OR NO CLOUDS BELOW 12,000 FEET WITH NO
SIGNIFICANT WEATHER AND/OR OBSTRUCTIONS TO VISIBILITY.

* THESE STATIONS ARE NOT UNDER NWS QUALITY CONTROL. THEY ALSO MAY NOT
  REPORT WEATHER SUCH AS PRECIPITATION OR FOG.

ILZ005-006-012>014-019>023-242100-
NORTHEAST ILLINOIS

CITY           SKY/WX    TMP DP  RH WIND       PRES   REMARKS
OHARE          PTSUNNY   73  63  70 NE12      30.15F
MIDWAY         PTSUNNY   74  62  66 NE13      30.15F
AURORA         PTSUNNY   78  65  63 E8        30.14F HX  80
LANSING*       MOSUNNY   76  66  73 NE10      30.15S
JOLIET*        MOSUNNY   80  68  66 CALM      30.13F HX  83
WAUKEGAN       CLOUDY    68  62  81 E10       30.17F
DUPAGE AIRPORT SUNNY     74  63  68 NE9       30.14F
WHEELING       PTSUNNY   71  62  73 NE8       30.18S
KANKAKEE*      SUNNY     82  67  61 NE6       30.12F HX  84
MORRIS*        MOSUNNY   80  67  64 E5        30.11F HX  82
LEWIS AIRPORT* PTSUNNY   78  69  72 NE7       30.13F HX  80
NORTHERLY ISL    N/A     71  62  73 NE10        N/A
$$

WIZ051-052-058>065-066-070>072-242100-
SOUTHEAST WISCONSIN

CITY           SKY/WX    TMP DP  RH WIND       PRES   REMARKS
MILWAUKEE      PTSUNNY   67  60  78 E12       30.19F
KENOSHA*       CLOUDY    68  61  78 E12       30.18F
RACINE*        CLOUDY    68  61  78 E10       30.20F
BURLINGTON     CLOUDY    67  59  76 E9        30.17F
WAUKESHA       CLOUDY    66  59  77 E10       30.20F
WEST BEND      CLOUDY    64  57  77 SE8       30.20F
$$

INZ001>003-010>013-019-020-242100-
NORTHWEST INDIANA

CITY           SKY/WX    TMP DP  RH WIND       PRES   REMARKS
GARY*          MOSUNNY   75  66  73 NE16      30.16F
MICHIGAN CITY* NOT AVBL
RENSSELAER*    NOT AVBL
VALPARAISO     PTSUNNY   78  64  61 E6        30.15S HX  80
$$

LMZ740>746-242100-
SOUTHERN LAKE MICHIGAN

STATION/POSITION TIME  SKY/WX   TEMP WIND        PRES    VSBY
                                AIR  DIR/SP/G
                 (UTC)          (F)  (DEG/KT/KT) (MB)    (MI)
HARRISON CRIB    1900            68   50/ 10/ 11   N/A
BURNHAM HARBOR   2000            70   40/ 11       N/A
CALUMET HARBOR   1900            70   30/  9/ 12 1021.0F
BURNS HARBOR     1908            70   40/ 12/ 13 1021.7F
MICHIGAN CITY    1900            68   10/ 14/ 16   N/A
$$

ABBREVIATIONS USED IN REMARKS
   TC - TEMPERATURE IN CELSIUS
  WCI - WIND CHILL INDEX
   HX - HEAT INDEX
  VSB - VISIBILITY
$$




USA.gov is the U.S. government's official web portal to all federal, state and local government web resources and services.